{"data":{"norad_id":52760,"epoch":"2026-05-24T22:56:24.963936Z","epoch_age_seconds":82878,"freshness":"FRESH","line1":"1 52760U 22057AE  26144.95584449  .00004926  00000+0  18875-3 0  9993","line2":"2 52760  97.6572 284.3242 0008062 196.3079 163.7901 15.26994258221614","mean_motion":15.26994258,"eccentricity":0.0008062,"inclination_deg":97.6572,"raan_deg":284.3242,"arg_perigee_deg":196.3079,"mean_anomaly_deg":163.7901,"bstar":0.00018875,"rev_number":22161,"period_min":94.302908636085,"perigee_km":479.27067624664,"apogee_km":490.33648163613,"semimajor_km":6862.9405789414,"source":"CELESTRAK","updated_at":"2026-05-25T13:37:57.886852Z"}}